This is the latest recevied weather packets stored in our database for station/object DL6MAA-11. If no packets are shown the sender has not sent any weather packets the latest 10 day(s).
| Time | Temp. | Humidity | Pressure | Rain* | Wind** | Luminosity | Snow |
|---|---|---|---|---|---|---|---|
| 1778132518 | 9.44° C | 76% | 1009.8 hPa | 0 mm | - | 77 W/m² | - |
| 1778132220 | 9.44° C | 76% | 1009.8 hPa | 0 mm | - | 76 W/m² | - |
| 1778131905 | 9.44° C | 76% | 1009.8 hPa | 0 mm | - | 62 W/m² | - |
| 1778131608 | 9.44° C | 75% | 1009.5 hPa | 0 mm | - | 62 W/m² | - |
| 1778131310 | 9.44° C | 75% | 1009.5 hPa | 0 mm | - | 54 W/m² | - |
| 1778131002 | 9.44° C | 75% | 1009.5 hPa | 0 mm | - | 49 W/m² | - |
| 1778130712 | 9.44° C | 76% | 1009.5 hPa | 0 mm | - | 74 W/m² | - |
| 1778130420 | 8.89° C | 76% | 1009.5 hPa | 0 mm | - | 111 W/m² | - |
| 1778130101 | 8.89° C | 77% | 1009.5 hPa | 0 mm | - | 62 W/m² | - |
| 1778129814 | 8.33° C | 78% | 1009.4 hPa | 0 mm | - | 49 W/m² | - |
| 1778129519 | 8.33° C | 79% | 1009.4 hPa | 0 mm | - | 40 W/m² | - |
| 1778129215 | 8.33° C | 79% | 1009.4 hPa | 0 mm | - | 23 W/m² | - |
| 1778128921 | 8.33° C | 79% | 1009.2 hPa | 0 mm | - | 19 W/m² | - |
| 1778128614 | 8.33° C | 79% | 1009.2 hPa | 0 mm | - | 19 W/m² | - |
| 1778128306 | 8.33° C | 79% | 1009.2 hPa | 0 mm | - | 12 W/m² | - |
| 1778128018 | 8.33° C | 79% | 1008.9 hPa | 0 mm | - | 9 W/m² | - |
| 1778127711 | 8.33° C | 79% | 1008.9 hPa | 0 mm | - | 7 W/m² | - |
| 1778127413 | 8.33° C | 79% | 1008.9 hPa | 0 mm | - | 5 W/m² | - |
| 1778127122 | 8.33° C | 79% | 1008.9 hPa | 0 mm | - | 5 W/m² | - |
| 1778126810 | 8.33° C | 79% | 1008.9 hPa | 0 mm | - | 5 W/m² | - |
| 1778126512 | 8.33° C | 79% | 1008.9 hPa | 0 mm | - | 7 W/m² | - |
| 1778126219 | 8.33° C | 79% | 1008.8 hPa | 0 mm | - | 9 W/m² | - |
| 1778125921 | 8.33° C | 79% | 1008.8 hPa | 0 mm | - | 5 W/m² | - |
| 1778125611 | 8.33° C | 79% | 1008.8 hPa | 0 mm | - | 0 W/m² | - |
| 1778125321 | 8.33° C | 79% | 1008.7 hPa | 0 mm | - | 0 W/m² | - |
* Rain since midnight (hover to see other rain measurements)
** Current wind speed in m/s (hover to see current wind gust speed)